STARLINK-34188 (64183 NORAD) Tracking and Keplerian Element Data

This shows tracking and keplerian element data for the satellite.

Feedback or suggestion? Click here.




ElementValue
Catalog64183
NameSTARLINK-34188
Epoch Orbit3266
Epoch Day352.70264332
Epoch Year2025
RAAN107.4532
Inclination53.1587
Eccentricity0.0001271
Argument of Perigee84.8436
Mean Anonmoly275.271
Mean Motion15.3020113
Decay Rate0.00021937
L11 64183U 25113P 25352.70264332 .00021937 00000+0 75058-3 0 9997
L22 64183 53.1587 107.4532 0001271 84.8436 275.2710 15.30201130 32666



Live tracking and technical data element details for STARLINK-34188 (NORAD 64183). STARLINK-34188 can be tracked NOW for your location showing map with azimuth and elevation plus other details from your city location.







IsCatalogInMostPopularTable: catalog: 64183, numindb: 10
Update: records affected: 1



GetName: 64183 STARLINK-34188

Hit Count: updated at: Mon, 20 Apr 2026 09:02:36 GMT